Wind_Speed
11 11 11 11 12 10 5 3 3 3 3 2 3 0 4 2 1 4 8 9 5 4 5 1 8 10 5 3 8 3 2 7 5 4 4 3 9 26 24 26 38 37 36 34 31 29 26 27 25 26 27 25 23 22 21 19 17 16 17 17 18 18 18 17 18 17 16 15 13 13 12 13 12 12 11 10 11 12 10 10 11 10 10 10 11 11 10 10 9 8 7 7 6 6 6 6 6
11 10 9 9 8 5 2 3 2 3 4 4 3 3 4 3 3 3 4 7 2 0 5 6 6 3 3 3 2 2 1 2 1 2 1 4 16 19 21 30 38 37 37 34 32 30 28 28 25 26 27 25 24 23 21 19 18 17 18 18 18 17 18 17 17 16 15 14 12 12 12 12 11 10 11 10 10 10 10 8 9 9 9 8 9 9 8 8 8 7 7 6 6 5 5 5 5
11 10 8 5 3 3 1 3 2 0 2 4 5 3 2 5 5 1 1 4 2 3 7 7 6 3 5 5 1 1 3 2 1 1 1 10 13 15 24 31 35 35 35 34 32 31 30 28 26 27 26 26 24 23 21 19 18 17 18 17 17 17 17 16 16 15 15 14 12 12 11 11 9 9 10 10 9 10 10 8 7 8 8 6 6 7 7 7 7 7 6 6 6 5 5 4 4
10 10 9 4 2 4 4 2 2 4 2 3 4 4 3 5 7 3 5 6 3 4 6 4 1 1 1 4 3 2 4 2 3 3 2 9 10 20 30 30 33 33 33 33 32 32 30 27 26 26 27 27 24 23 21 19 18 18 18 17 17 17 16 15 15 14 14 13 12 11 10 9 8 9 9 9 9 10 10 9 7 7 7 5 5 5 6 6 6 6 6 6 5 5 4 4 4
8 7 5 3 2 1 3 1 2 4 4 4 3 6 3 6 7 4 6 7 6 2 3 4 2 2 2 4 2 2 4 1 3 4 5 9 13 27 32 31 33 32 33 32 32 32 30 27 26 27 27 26 24 23 21 20 18 18 18 17 17 16 15 15 14 14 13 12 10 10 9 9 8 8 8 7 8 8 9 9 7 6 6 5 4 4 5 5 5 5 6 6 5 5 5 5 5
6 3 3 3 2 1 3 1 2 3 5 5 3 7 6 6 7 7 5 6 7 7 7 6 4 1 2 3 2 2 3 1 3 5 10 11 18 30 32 34 33 31 31 29 31 32 30 28 26 27 27 26 24 22 21 19 18 18 18 17 17 16 15 14 14 13 12 11 9 9 8 8 8 8 7 7 7 7 7 9 8 7 5 4 3 3 4 4 4 5 5 5 6 6 6 6 6
3 1 2 3 1 1 4 4 5 5 6 6 5 8 9 8 6 7 5 5 4 7 6 4 5 4 1 3 2 2 6 1 4 8 16 17 24 29 30 34 34 31 30 28 30 31 30 27 27 27 27 26 24 22 20 19 19 18 17 17 16 16 15 14 13 11 10 9 8 7 7 7 7 7 7 7 7 6 6 8 8 8 6 4 4 3 3 3 3 5 5 5 6 7 7 7 6
1 1 1 3 1 2 4 4 5 5 5 4 6 8 10 11 5 5 5 4 3 2 1 2 5 2 4 0 2 3 11 4 8 14 21 24 30 29 27 31 32 31 29 29 30 30 28 27 28 27 27 26 23 22 20 19 19 19 18 17 16 15 14 13 12 10 9 7 6 6 5 6 6 7 8 8 8 7 7 7 7 9 8 6 5 4 4 3 3 4 5 5 6 7 7 6 5
2 2 1 2 2 0 2 2 4 4 5 5 7 8 10 10 5 5 7 7 5 1 4 5 6 4 5 1 1 3 9 8 15 20 25 29 32 30 28 28 30 31 29 29 30 29 27 27 28 27 26 24 22 21 20 19 19 19 18 16 16 15 14 12 11 9 8 7 6 6 5 5 5 6 7 8 9 9 8 8 8 9 8 7 7 5 4 3 3 4 5 5 6 7 7 6 4
2 2 2 1 3 3 2 3 4 4 6 6 8 10 8 8 6 6 6 11 7 2 5 4 5 4 3 2 2 3 5 14 21 23 27 31 31 30 28 27 29 30 30 30 29 28 27 27 27 26 24 23 22 21 20 19 19 19 17 16 15 14 13 11 10 9 8 8 8 7 7 6 5 4 5 6 8 9 9 9 8 9 9 8 7 5 4 4 3 3 4 5 6 7 7 6 4
2 2 3 2 2 4 5 4 5 5 6 3 6 9 8 8 7 6 6 11 6 3 5 2 3 5 3 1 2 1 10 17 24 27 27 30 29 28 27 26 27 29 31 31 29 28 27 26 26 25 23 22 21 21 20 19 19 18 17 16 14 13 12 11 10 9 9 10 10 10 10 10 9 7 5 4 5 7 9 10 9 9 8 7 4 3 4 4 3 2 3 5 5 6 6 6 4
2 1 3 3 4 5 6 5 6 7 6 3 5 9 6 6 4 8 9 10 5 4 8 7 6 6 5 2 2 3 10 12 21 30 28 28 27 26 27 26 26 27 30 30 29 28 27 26 25 23 22 22 21 21 20 19 19 18 17 15 13 13 11 10 10 9 10 11 12 12 12 12 11 10 8 6 4 3 6 9 9 9 8 6 3 1 3 3 3 2 2 3 4 4 5 5 5
3 4 5 2 4 4 5 5 5 5 6 4 7 8 3 4 6 11 9 8 7 5 9 10 7 7 4 1 2 4 7 10 20 28 27 27 26 25 26 26 26 26 27 28 29 28 27 26 24 23 22 21 21 21 20 19 19 17 16 15 13 12 11 10 10 10 11 12 13 13 13 12 11 10 10 9 7 4 2 4 7 8 7 6 4 2 2 3 3 2 1 1 2 3 4 4 4
3 3 5 3 2 4 5 3 3 4 5 5 6 7 4 4 6 8 6 8 9 6 6 7 10 7 2 2 3 3 7 15 22 25 26 26 26 26 26 26 26 26 26 27 28 28 27 26 25 23 22 22 21 20 20 19 18 17 15 14 13 12 10 10 10 11 11 12 13 13 13 12 11 11 10 10 9 8 6 3 2 4 5 5 5 3 2 2 3 3 2 1 2 3 4 5 5
5 2 4 2 1 2 4 4 5 6 5 6 6 5 5 5 4 6 6 8 9 5 2 4 7 4 5 7 5 6 13 22 24 25 26 26 25 26 25 26 25 24 25 25 26 26 26 26 25 24 23 23 22 21 19 18 17 16 15 13 13 11 11 11 10 11 11 12 13 13 13 12 11 11 11 11 10 9 9 8 6 3 1 1 2 3 2 3 3 3 2 3 4 5 6 6 7
4 2 3 2 3 3 4 4 5 5 5 6 6 0 4 8 4 5 7 6 1 1 2 2 3 2 7 8 6 15 24 27 27 27 28 26 25 24 24 24 24 24 24 23 24 24 25 25 25 24 24 23 22 21 19 18 17 15 14 14 13 11 11 11 10 11 11 12 12 12 12 12 12 12 12 12 11 10 10 9 9 8 6 4 3 2 1 0 1 1 2 4 5 6 6 7 8
2 2 2 2 4 4 5 5 6 5 5 7 5 1 2 9 4 3 2 4 5 2 3 1 1 2 4 5 15 28 31 30 30 29 27 25 24 23 22 23 23 23 23 23 24 24 25 25 25 25 24 24 22 21 20 18 17 15 14 14 12 11 11 10 11 11 12 12 11 11 11 11 12 12 12 12 12 12 11 10 9 9 8 8 7 6 5 4 3 3 4 5 6 7 7 8 8
2 3 4 4 5 6 6 8 6 5 4 5 4 2 4 5 7 4 3 5 3 4 5 3 5 6 8 15 26 32 31 31 31 29 25 22 21 20 19 20 22 23 24 24 24 26 27 26 26 26 26 24 22 22 21 20 18 17 15 14 13 12 11 11 11 12 12 12 11 10 10 10 10 10 10 10 11 11 10 9 9 8 8 8 8 8 7 6 5 5 6 7 8 8 8 9 9
4 3 4 6 6 6 6 7 6 5 5 4 2 2 1 4 5 4 2 2 2 4 3 5 7 8 12 18 25 28 29 30 28 26 22 20 19 19 18 19 21 22 24 25 24 25 27 28 27 27 27 25 24 23 22 21 19 18 16 15 14 12 11 11 11 12 11 10 9 9 9 9 9 7 7 7 8 8 8 8 8 8 7 7 8 8 8 8 7 7 7 8 9 9 9 9 10
4 3 4 7 6 5 4 6 7 6 4 4 5 3 5 6 4 3 1 1 3 4 3 3 5 8 12 14 19 24 25 25 24 23 21 19 19 19 19 18 19 22 24 26 25 25 26 27 27 27 27 26 25 24 22 21 20 18 16 15 14 13 12 11 11 11 10 8 8 7 7 7 6 5 4 5 5 5 6 6 6 7 6 6 6 6 7 7 8 7 7 8 9 9 9 9 10
3 5 6 5 5 5 7 8 7 6 4 5 5 3 6 8 3 3 2 1 3 5 6 6 10 14 15 13 16 20 21 20 19 19 17 17 17 17 17 17 19 21 24 25 25 26 26 26 27 27 26 26 25 23 23 22 20 19 17 16 15 14 12 12 11 10 9 8 7 6 5 5 4 3 3 3 4 4 5 5 6 6 6 6 6 6 7 7 8 7 7 7 8 9 9 10 11
2 6 7 4 5 5 7 8 7 7 5 7 5 2 4 6 4 4 5 5 5 6 7 7 14 18 18 16 16 17 16 14 14 15 15 16 15 15 16 17 18 19 22 24 26 27 27 27 27 28 27 26 25 24 23 21 20 19 18 16 15 14 13 12 11 10 9 7 6 5 4 3 2 2 2 3 4 4 5 5 5 5 6 6 6 6 7 7 7 7 8 8 9 10 10 11 11
3 4 4 5 6 5 5 5 7 7 6 9 5 3 3 5 6 4 3 7 6 7 5 9 16 19 21 19 17 15 12 11 12 14 15 17 17 18 19 20 21 23 25 25 26 27 27 27 28 27 27 26 25 24 23 21 20 19 18 17 16 14 13 12 11 10 8 7 6 4 3 2 1 1 1 2 4 4 5 6 5 5 6 6 5 6 6 6 7 8 9 10 10 9 9 10 10
6 4 2 5 6 6 5 4 6 7 9 10 3 0 3 4 7 3 4 7 5 7 1 12 14 16 20 17 14 13 13 13 14 16 18 20 22 23 25 25 25 26 25 25 26 27 27 28 27 27 26 26 25 23 23 22 21 20 18 17 16 14 12 12 11 10 9 7 5 4 3 2 0 1 2 3 3 4 5 5 5 5 5 5 5 6 7 7 8 9 9 8 8 8 8 9 9
6 6 3 4 5 6 6 6 7 6 7 7 3 3 6 8 5 4 10 9 1 1 8 13 13 15 14 13 15 15 14 15 17 20 22 24 27 27 27 26 26 25 25 28 29 28 28 28 27 26 25 25 24 23 23 22 21 20 18 16 14 13 12 12 11 10 9 7 5 5 4 2 1 0 2 2 3 4 4 4 4 4 4 5 6 6 7 8 8 8 8 7 7 8 9 10 11
6 6 5 5 6 5 5 6 8 7 5 4 6 8 8 8 2 4 12 5 5 7 11 12 14 15 13 13 15 15 16 16 18 21 22 23 26 25 23 23 24 24 26 28 30 30 29 28 27 25 25 24 23 23 22 21 21 20 18 15 13 13 13 12 12 11 9 7 6 6 5 3 2 2 2 3 3 3 3 3 3 3 4 5 6 6 7 8 7 7 7 8 9 10 11 11 12
5 6 7 8 8 6 5 7 7 6 5 5 6 8 9 5 2 4 8 3 9 11 12 12 14 14 13 14 13 14 16 17 20 21 19 19 21 21 21 22 23 23 25 27 29 29 28 28 28 26 25 24 23 22 22 21 20 19 17 15 14 14 13 12 12 11 9 8 7 7 5 4 5 4 3 3 3 2 1 2 2 2 4 5 6 6 7 7 6 6 7 9 10 11 11 10 10
4 5 5 7 8 7 7 8 7 3 4 6 8 8 9 1 3 7 5 5 10 15 15 14 14 12 14 15 12 10 10 15 21 21 20 20 23 26 27 28 27 26 27 29 29 28 28 29 29 28 27 26 24 23 22 21 20 19 17 16 16 15 14 13 13 12 9 8 9 8 6 6 6 4 2 2 2 1 0 0 1 2 3 4 4 5 5 4 4 5 7 8 9 9 8 7 7
4 5 4 6 6 7 8 8 6 5 4 5 7 5 8 2 5 9 3 7 11 16 16 15 14 12 13 13 10 7 8 14 19 21 24 26 29 33 34 34 33 31 31 30 28 28 30 31 29 28 28 28 27 24 24 23 21 19 18 17 16 15 14 14 13 12 10 10 11 9 7 6 4 3 3 2 2 2 1 0 0 1 2 2 3 3 2 3 4 5 6 7 8 7 7 6 6
3 3 3 4 4 6 7 6 5 6 5 6 7 3 7 5 9 8 4 11 14 14 13 13 12 11 11 10 9 8 10 14 17 21 26 27 31 35 36 38 39 37 34 29 27 29 31 31 29 28 28 28 26 25 25 24 22 20 19 17 16 14 14 14 14 12 12 11 11 9 7 5 4 4 3 2 2 2 1 2 2 2 2 1 2 2 2 3 4 5 6 6 7 7 7 7 7
2 2 3 3 4 5 6 5 6 6 4 8 8 5 7 6 11 7 5 11 15 14 11 11 11 11 10 9 9 10 11 13 16 21 24 26 29 30 32 36 39 38 35 30 29 30 31 31 29 28 29 28 25 25 26 25 23 21 19 17 15 14 13 14 14 13 14 12 10 9 6 4 4 5 4 3 3 3 4 5 4 3 2 0 1 2 3 3 4 5 6 6 7 7 7 8 8
1 3 3 3 4 5 7 6 9 8 4 8 10 6 5 6 10 4 5 10 14 14 12 11 12 11 10 8 9 10 8 9 15 19 21 24 26 26 26 30 34 36 34 32 32 32 32 31 29 28 30 29 25 24 25 24 23 21 18 16 14 14 14 14 14 14 15 12 10 7 5 5 5 5 4 3 3 4 5 6 5 3 2 0 1 2 3 3 4 5 6 8 8 8 9 9 9
2 3 3 3 5 3 5 5 7 11 6 5 9 6 2 5 9 2 6 11 14 13 11 12 13 12 11 9 8 8 6 7 11 14 19 22 23 25 26 26 30 33 33 34 34 34 33 32 30 29 30 28 26 25 25 24 22 20 18 15 15 15 15 15 15 15 13 11 8 6 5 5 5 4 4 4 5 6 6 6 5 3 1 1 1 2 3 4 4 5 7 9 9 10 10 10 11
3 1 3 2 4 5 4 5 5 9 8 6 7 6 4 6 6 1 6 12 14 14 12 12 12 10 9 8 8 7 7 9 10 13 21 23 22 24 27 29 30 30 32 35 36 37 35 33 31 30 30 27 26 27 26 23 20 19 18 16 17 18 18 17 15 13 10 8 7 5 6 5 5 6 6 6 6 6 6 5 4 3 1 1 1 2 3 5 5 6 8 9 9 10 12 12 12
3 3 4 3 3 5 7 5 4 6 7 6 6 6 7 7 6 3 5 12 15 15 13 12 13 11 9 9 9 8 8 10 11 15 22 23 22 24 27 30 31 29 30 33 35 34 31 30 29 29 29 27 27 27 25 22 20 20 21 20 21 20 19 16 13 10 8 7 5 5 6 6 7 9 8 7 6 5 4 3 3 3 2 1 1 3 4 5 6 7 8 9 9 11 13 12 12
7 5 4 4 4 5 6 5 5 5 6 5 7 6 6 7 6 1 4 8 13 15 13 11 11 10 9 8 9 9 10 10 11 15 19 20 22 25 28 31 31 29 28 30 31 28 26 26 25 26 28 28 28 27 25 25 24 24 24 23 21 19 16 13 10 8 7 6 5 6 8 9 11 10 9 7 5 4 3 3 3 3 2 1 2 5 6 7 7 8 9 9 10 12 13 14 13
7 5 3 4 4 4 4 3 7 3 5 4 7 7 7 7 6 3 5 6 10 13 11 10 10 10 9 9 10 12 11 9 9 12 16 19 22 25 28 30 29 27 26 28 28 26 26 26 24 25 28 29 31 30 28 28 27 26 24 22 20 17 14 12 9 7 6 6 7 10 11 12 12 10 8 5 4 3 3 3 3 3 3 4 5 7 7 7 8 9 9 9 11 13 15 17 16
4 4 3 4 4 4 4 4 6 1 3 4 4 6 8 7 6 4 6 8 10 14 13 11 12 11 9 9 10 11 9 6 7 9 13 18 20 24 27 26 27 27 26 27 27 27 27 27 26 27 29 30 32 31 30 28 26 25 23 21 19 16 13 10 8 8 8 10 11 12 13 13 11 9 7 5 3 3 3 4 4 5 5 6 6 7 7 7 9 9 9 10 11 14 16 18 17
5 3 3 3 4 3 4 5 4 1 3 4 4 6 7 4 3 5 6 6 7 12 16 16 16 14 11 10 11 11 9 7 8 9 12 17 20 22 24 24 27 29 28 28 27 26 25 25 26 27 29 30 31 31 29 26 24 23 21 19 18 16 12 10 10 11 12 13 13 13 13 12 10 8 6 4 3 3 4 5 6 6 7 6 6 6 7 8 9 9 10 11 11 13 14 16 17
5 4 4 3 3 2 2 4 4 1 3 2 4 3 5 3 3 2 5 3 2 5 9 11 13 14 13 11 12 13 13 12 11 9 10 14 18 21 22 24 27 27 26 27 27 26 25 25 26 27 28 29 30 29 27 24 23 21 19 18 17 15 13 13 14 14 15 16 15 14 12 11 9 7 6 4 4 5 5 6 6 6 7 7 6 7 8 9 10 9 10 11 12 13 12 14 16
4 4 5 4 3 3 3 3 4 3 2 2 4 2 5 1 3 3 4 0 3 2 2 6 8 9 8 8 10 10 12 13 12 12 11 11 16 20 22 24 25 24 24 26 27 27 26 25 26 26 26 26 27 26 25 24 23 21 19 17 16 15 16 17 19 19 18 17 15 14 12 10 8 7 6 6 5 6 6 6 6 6 7 6 6 7 9 10 10 10 10 11 12 12 10 11 14
5 4 6 6 5 5 3 2 3 5 4 2 4 1 6 3 5 6 3 3 5 3 4 8 7 7 8 9 10 10 10 11 10 10 9 9 14 18 20 22 23 22 24 25 26 25 25 24 25 26 25 25 25 25 25 25 24 22 20 19 19 19 20 21 23 22 20 17 15 13 11 9 8 7 7 7 6 6 5 5 5 6 6 6 6 7 9 9 10 10 10 10 10 9 8 11 13
4 5 8 8 6 5 3 0 2 3 2 4 3 5 5 4 4 6 4 4 5 4 6 9 7 8 9 9 10 11 10 10 8 7 6 7 13 15 16 19 21 21 22 23 23 23 23 24 25 25 24 24 25 25 24 24 23 22 21 21 20 22 23 21 22 22 19 17 15 13 12 10 9 8 8 7 6 5 5 5 5 6 6 7 7 8 10 10 11 10 9 8 9 8 10 14 15
3 5 9 9 8 6 4 3 1 2 2 4 1 4 2 4 5 4 4 4 5 6 9 10 8 8 8 8 9 11 11 10 9 9 9 10 12 14 15 16 18 20 21 22 22 23 24 25 25 25 24 24 24 24 24 23 23 22 22 21 21 23 24 23 22 21 18 17 15 13 12 11 10 9 8 7 6 5 5 5 6 6 8 8 9 10 11 10 10 9 9 9 10 11 13 15 16
4 5 9 8 8 7 5 4 3 2 1 5 4 2 2 5 4 2 5 5 6 9 12 13 12 10 10 10 10 11 11 10 8 9 11 11 12 15 15 16 17 20 21 22 23 23 24 25 25 25 25 24 24 24 23 22 21 22 22 22 22 23 24 24 22 20 19 17 16 14 13 12 11 9 8 6 5 5 5 6 7 8 9 10 10 11 10 9 9 9 10 11 12 14 14 14 15
4 6 6 4 4 5 5 5 4 1 1 6 7 3 3 4 3 4 4 5 9 10 10 12 13 12 11 11 10 11 10 9 8 8 9 11 14 16 17 18 19 20 21 22 23 24 24 24 25 25 24 24 23 22 22 21 21 22 22 23 24 25 25 25 22 21 20 17 16 15 14 13 11 10 8 7 6 6 6 7 8 10 10 10 11 11 10 9 9 9 11 12 12 13 14 14 15
5 6 3 1 1 1 3 3 3 2 2 8 7 6 5 4 4 5 6 10 13 11 8 10 13 13 13 12 11 11 10 8 8 8 8 11 14 17 19 20 20 21 21 22 22 23 24 24 25 24 23 23 22 21 21 20 20 22 23 25 27 27 27 27 24 22 21 19 18 16 15 14 12 10 9 7 7 7 8 9 11 11 11 10 11 10 10 9 10 10 11 11 12 13 14 14 15
6 5 4 1 4 2 1 2 2 3 5 7 6 7 7 4 5 7 12 14 10 11 13 15 17 17 14 12 11 10 9 9 9 9 9 10 12 16 19 20 20 22 22 21 22 23 24 25 25 25 23 23 23 22 23 22 21 22 23 25 28 29 29 28 26 24 22 20 19 17 16 14 12 11 9 8 8 8 10 12 12 11 10 10 10 10 10 10 10 10 11 11 12 13 13 13 14
6 5 6 4 2 1 3 2 1 4 5 6 4 5 4 6 7 9 16 16 10 12 16 18 19 19 16 13 11 9 8 9 9 9 9 9 9 10 13 15 19 22 22 22 23 23 24 25 25 25 23 23 23 23 24 24 23 23 22 25 27 28 29 28 26 24 22 20 19 18 17 14 13 11 8 8 10 11 12 12 11 10 10 10 11 11 11 11 11 11 12 13 14 15 15 15 16
7 6 6 6 4 3 4 3 1 2 5 7 4 3 2 4 5 8 14 18 16 13 11 13 15 15 14 12 11 9 9 10 10 9 10 9 8 10 11 14 17 19 22 23 24 24 24 24 24 25 23 22 23 23 23 23 23 23 23 25 27 28 28 26 24 23 22 20 19 18 16 14 12 9 8 11 14 15 14 12 11 11 12 12 11 11 12 12 12 14 14 15 17 17 17 17 17
6 4 6 5 4 5 4 3 3 3 4 5 2 3 4 4 3 6 9 10 8 7 5 7 8 8 9 9 9 9 9 9 8 9 10 10 12 16 19 20 19 19 22 23 23 24 23 23 24 24 22 21 21 22 23 23 22 23 24 26 27 28 27 24 23 22 21 21 20 17 15 13 10 9 13 16 16 15 14 13 12 12 13 12 12 12 13 14 13 15 15 16 17 17 18 19 19
4 4 6 5 5 5 1 2 6 5 3 3 2 3 4 4 3 6 2 3 6 8 8 10 10 9 9 10 10 10 9 9 8 9 11 11 15 18 19 20 21 21 23 22 23 24 24 24 24 23 22 21 20 20 22 22 22 23 25 26 27 27 25 23 23 22 21 21 19 17 15 12 11 15 18 18 15 14 14 14 13 13 14 14 13 13 14 14 14 15 15 16 18 18 18 20 21
4 4 5 5 5 5 1 2 1 3 4 4 1 2 4 2 3 6 5 5 7 9 10 11 11 12 11 10 10 10 10 10 9 9 11 12 15 17 17 20 22 23 24 23 23 26 26 25 24 23 22 22 21 20 20 21 23 24 25 27 27 26 25 24 24 23 22 21 19 17 14 12 16 20 19 16 15 15 14 13 14 15 15 14 14 14 14 15 15 15 15 16 18 18 19 21 22
5 6 7 3 3 2 1 2 1 3 4 4 1 3 3 1 2 5 5 4 6 8 10 11 11 12 12 10 11 11 11 11 9 9 11 11 13 16 18 20 22 23 24 23 23 26 27 26 25 24 24 24 23 22 22 22 23 25 26 27 27 26 25 24 24 24 23 22 19 16 13 15 20 21 17 16 16 15 14 14 16 17 16 15 15 14 14 15 15 16 16 17 18 18 21 23 23
6 6 7 5 4 2 1 2 2 2 3 3 1 1 2 3 4 3 2 7 8 8 9 10 12 13 13 11 12 12 11 10 9 9 10 10 12 16 18 20 22 23 24 24 23 25 26 26 25 25 25 23 23 24 24 24 24 26 27 28 27 25 24 24 24 25 24 22 19 16 16 20 22 20 17 16 16 16 16 16 18 18 16 15 15 14 14 15 16 16 17 18 18 19 22 24 24
4 4 6 4 4 4 3 2 3 3 3 3 1 2 3 5 6 7 10 11 10 11 11 12 14 15 13 12 12 12 11 10 10 9 10 10 13 16 18 20 22 24 26 26 24 24 26 27 26 25 24 24 25 26 26 26 26 27 28 27 26 25 24 24 25 25 24 21 18 18 20 24 23 19 17 16 16 17 17 18 19 17 15 16 16 15 15 16 17 17 18 19 20 21 24 25 25
5 5 5 4 3 3 2 1 2 3 3 3 3 2 5 6 4 9 12 11 12 14 14 14 14 14 13 12 12 12 11 11 10 10 9 9 13 16 18 21 21 23 26 26 25 25 27 27 26 25 25 26 27 27 27 28 28 27 28 27 25 25 25 25 25 24 22 19 18 21 24 24 22 19 17 16 16 17 17 19 19 16 15 16 16 16 15 15 17 18 18 19 20 22 24 25 26
7 6 5 5 5 4 3 2 1 2 3 4 4 3 6 6 3 6 9 11 13 15 14 12 12 14 13 12 12 12 12 12 11 10 9 8 13 16 18 21 21 21 25 26 25 27 27 27 27 26 27 28 28 29 29 29 28 27 27 27 26 26 25 25 24 23 21 19 20 23 23 22 20 18 16 17 17 17 17 17 17 15 15 17 16 16 15 14 17 18 18 19 20 22 24 25 25
Wind_Direction
333 334 332 326 321 326 339 57 40 324 65 310 276 155 267 234 310 330 338 334 350 350 338 54 120 132 140 179 202 232 174 173 171 153 208 278 144 159 168 163 158 157 156 156 154 154 156 159 160 159 159 161 160 157 156 154 150 144 139 136 134 133 132 130 130 129 129 128 128 128 125 121 116 113 109 106 104 104 106 104 106 102 101 106 103 99 95 94 92 89 84 81 79 79 81 82 81
336 334 334 325 325 341 315 76 72 314 38 313 284 163 260 309 332 342 336 330 309 308 22 46 57 80 357 10 153 332 293 194 177 161 291 122 136 156 167 162 159 158 156 154 153 155 157 159 160 160 159 161 160 158 156 154 151 145 140 136 134 134 134 133 131 130 129 129 130 129 126 120 115 118 117 115 112 111 112 109 110 103 99 104 103 99 94 93 89 85 80 77 75 77 83 85 83
335 335 340 339 349 32 43 45 83 220 66 269 277 208 247 305 281 194 222 300 244 113 68 53 21 11 349 343 125 194 237 336 84 130 20 142 144 160 164 161 159 158 156 153 154 157 157 158 160 160 159 161 160 159 157 154 151 144 140 136 135 135 135 133 131 131 131 134 135 131 125 120 121 127 124 124 123 119 118 119 118 112 106 104 109 105 95 89 82 79 75 73 72 73 81 87 87
330 334 340 1 39 30 60 49 141 146 190 234 275 253 171 257 260 184 194 247 237 82 77 77 15 161 43 269 278 312 237 304 162 151 138 168 166 160 160 159 158 156 155 155 157 156 155 157 159 159 159 160 160 160 158 154 149 143 141 138 138 136 135 133 132 132 132 137 136 131 125 122 131 134 132 133 133 129 131 136 131 123 122 118 120 113 97 86 77 73 71 73 71 70 77 88 94
320 327 340 45 100 27 99 101 123 144 210 193 247 270 207 226 257 226 200 229 226 134 131 145 225 212 126 234 263 285 235 203 161 158 145 170 170 160 158 158 156 154 154 157 157 155 153 156 159 158 159 159 160 160 158 154 148 144 143 141 140 137 137 135 133 132 133 138 137 133 129 128 139 142 142 143 140 138 144 149 142 134 136 136 130 120 105 89 78 69 66 70 68 65 66 81 95
315 340 27 65 108 173 121 178 184 189 221 176 209 269 256 235 253 257 237 249 228 200 210 186 192 141 109 257 198 209 284 130 151 163 154 157 166 161 159 158 156 154 155 157 157 154 152 156 158 157 158 158 159 160 159 154 147 145 145 144 142 140 139 137 135 135 135 138 138 135 132 135 146 153 155 156 155 151 152 154 149 143 140 141 141 144 127 100 85 69 62 68 66 61 61 75 89
334 47 34 66 41 31 117 198 209 218 230 182 206 254 263 258 250 272 286 289 251 195 223 210 147 103 203 251 198 341 5 86 149 156 158 154 161 159 157 157 156 155 155 157 156 152 152 156 157 157 158 158 159 160 160 153 147 148 147 146 144 143 142 140 138 137 135 134 136 135 135 143 157 167 171 172 174 172 166 164 160 151 144 149 162 170 152 122 95 73 63 68 64 58 62 75 86
35 115 29 103 100 14 121 203 222 213 238 215 232 243 254 263 254 277 281 268 281 185 232 235 134 136 256 198 211 336 27 70 143 155 156 152 157 157 156 156 155 154 154 157 154 151 153 157 157 157 158 157 158 159 159 152 150 150 149 149 147 145 143 141 137 134 130 128 132 135 141 156 173 185 188 189 190 189 184 181 172 163 160 170 183 177 163 150 111 81 66 68 64 59 64 76 86
63 80 100 119 144 88 129 216 246 230 252 249 248 245 249 266 256 255 269 263 271 155 194 205 153 191 248 72 244 315 39 96 133 144 150 151 155 155 157 157 155 151 152 154 151 151 155 158 157 156 157 156 156 158 157 152 152 152 151 153 150 147 144 140 133 129 126 127 129 130 138 149 168 185 196 200 203 203 198 196 188 178 175 188 199 188 177 167 135 91 71 67 64 61 64 74 86
38 37 141 121 132 179 224 239 250 248 250 236 245 249 250 265 260 238 254 267 264 156 217 186 139 210 207 154 285 328 95 128 130 133 144 149 151 154 157 158 156 152 151 151 150 153 155 158 158 155 155 155 155 156 155 153 154 153 154 156 151 148 143 136 130 127 125 124 121 115 114 111 116 135 165 186 199 207 207 206 203 198 195 203 207 204 202 180 154 107 74 64 60 58 62 68 78
43 345 134 168 147 185 215 228 238 245 258 271 272 258 245 249 267 260 239 261 261 162 228 138 154 214 133 173 301 56 137 139 136 135 143 146 149 155 156 155 154 152 151 150 152 154 153 157 156 153 154 154 156 155 154 155 155 155 158 157 151 147 140 134 129 126 125 120 111 105 99 95 94 97 110 134 172 197 207 210 213 213 214 216 214 214 206 185 165 121 74 58 51 48 53 58 63
121 235 103 177 191 194 201 212 233 242 269 308 277 260 240 227 258 263 245 259 256 183 211 177 178 165 120 264 311 117 133 139 140 139 143 145 149 153 154 154 151 150 150 150 152 152 153 155 153 154 155 155 156 156 157 158 158 159 160 156 149 146 139 133 128 125 124 117 108 103 97 94 91 89 93 99 121 168 199 210 216 219 223 225 217 191 188 183 179 142 76 59 50 40 39 42 47
146 173 116 179 201 181 184 203 233 244 273 257 243 256 242 217 240 249 252 268 250 217 221 193 162 125 130 233 127 141 127 137 140 138 144 145 148 152 152 151 149 149 150 150 150 151 153 151 151 154 156 156 156 157 160 161 162 162 160 156 150 146 140 131 126 126 123 115 109 103 98 95 91 88 87 88 92 101 147 204 218 221 225 224 215 195 177 183 194 190 139 56 36 25 19 16 21
175 169 136 195 213 159 166 188 225 218 255 244 236 258 256 234 239 246 252 277 264 222 219 179 144 116 122 140 145 194 135 141 142 139 143 144 149 150 149 148 147 149 149 150 149 150 150 150 152 153 155 156 156 159 163 165 164 163 160 157 152 147 139 130 127 126 120 112 107 102 100 97 91 86 83 82 81 82 85 92 169 219 228 230 227 222 206 198 210 218 228 288 334 344 348 346 346
182 144 115 164 184 172 194 198 200 202 241 248 236 249 271 262 247 278 250 245 275 243 169 120 145 139 166 177 193 187 146 145 145 141 141 142 145 144 145 145 146 148 149 149 147 149 149 150 153 154 157 156 158 162 164 165 165 165 161 157 153 148 138 132 130 124 117 112 109 103 101 98 92 85 82 80 76 76 77 78 81 91 135 221 228 234 233 226 229 238 266 303 320 328 330 332 335
170 109 93 164 199 201 216 197 182 203 241 242 237 231 307 284 238 265 249 184 229 275 88 112 183 156 172 187 166 146 143 146 145 143 140 136 137 136 139 142 144 146 148 149 148 149 150 152 154 156 158 157 161 164 163 166 167 167 162 158 156 150 142 135 130 123 118 115 111 104 99 96 91 85 81 76 73 70 67 70 72 75 76 76 80 76 66 276 277 304 323 333 337 339 339 343 346
117 119 150 189 195 202 199 188 184 196 235 249 261 48 261 286 282 248 290 105 135 122 54 67 343 28 154 146 128 136 142 146 145 142 136 131 130 130 136 140 142 145 149 152 152 153 154 155 157 160 159 159 164 165 165 168 168 169 163 161 160 155 148 140 133 129 124 118 114 104 96 93 90 84 78 70 66 63 59 58 59 61 60 60 62 61 59 53 49 37 24 13 5 1 358 358 358
144 152 191 200 189 201 186 185 194 175 214 242 249 213 199 275 310 296 20 43 111 93 28 36 33 35 90 111 126 135 141 146 147 143 136 130 131 131 137 142 145 148 153 156 157 158 158 158 161 162 160 162 167 168 170 170 171 172 166 165 166 163 156 147 141 138 131 122 117 107 97 94 92 86 75 65 57 53 51 48 46 46 42 41 40 40 41 39 43 38 29 22 16 11 4 2 2
181 141 187 216 196 203 188 181 195 176 208 241 274 324 325 287 312 322 343 356 141 116 31 38 56 69 95 111 126 135 143 148 151 145 135 133 137 137 140 147 150 152 155 158 160 162 162 162 165 165 163 166 169 171 173 173 174 175 170 169 171 169 163 155 149 147 140 129 124 113 102 96 92 87 76 63 51 41 37 34 32 34 32 29 26 27 27 23 23 20 18 18 16 12 8 5 2
188 140 199 229 200 211 223 201 213 212 224 272 284 322 339 297 297 318 307 145 204 183 164 98 110 122 116 123 133 140 147 152 152 143 137 137 139 140 143 149 155 157 159 159 161 165 166 165 167 167 168 170 171 173 173 174 176 177 174 171 174 174 169 162 157 155 150 141 133 120 110 101 88 80 69 55 43 26 19 15 12 18 20 19 20 21 19 17 16 15 13 12 9 8 8 5 358
182 187 209 220 178 208 238 223 232 243 251 264 273 349 329 294 292 279 258 166 261 244 220 180 153 142 134 141 145 149 154 153 148 138 130 127 128 133 140 150 158 162 162 160 163 168 170 169 170 170 171 173 174 173 173 175 177 178 176 173 178 178 172 167 166 163 157 150 139 128 118 105 86 67 48 35 25 12 6 357 352 359 5 7 8 9 11 13 12 9 6 5 4 2 3 2 359
192 215 208 202 168 205 233 217 231 240 253 263 270 319 288 298 321 279 258 235 235 235 231 171 150 149 147 151 155 157 154 141 129 120 113 113 119 127 137 151 159 164 165 164 168 171 173 173 174 173 174 176 176 175 175 176 177 181 179 177 183 181 176 173 172 167 161 155 145 141 128 106 68 28 2 2 359 352 350 343 339 345 353 358 357 359 3 5 2 1 359 359 359 358 0 2 1
227 242 196 205 187 205 233 202 219 218 233 255 247 241 271 340 314 277 231 229 232 258 242 148 150 153 150 153 155 151 132 113 107 111 115 119 128 138 149 160 167 170 170 170 172 174 175 176 177 176 176 178 177 177 177 177 181 185 182 182 186 183 180 178 174 168 162 158 154 150 134 109 34 2 332 331 332 331 332 330 331 338 352 358 352 353 358 358 356 359 358 357 357 356 358 357 357
223 250 223 222 211 216 242 230 229 208 220 243 210 169 288 299 292 303 275 263 269 296 30 127 144 144 146 147 135 121 107 104 108 117 127 137 148 156 162 168 173 172 172 173 174 176 178 179 180 179 179 179 179 180 179 181 184 185 185 187 189 186 184 179 171 166 165 166 166 158 142 132 80 4 325 320 318 322 321 320 326 338 358 1 352 356 359 356 353 357 358 356 356 355 354 350 347
221 235 254 237 229 226 239 249 255 234 227 246 250 273 252 243 275 319 278 282 357 68 97 119 134 130 131 124 114 111 112 117 123 133 143 152 159 163 167 171 172 173 174 175 176 179 181 181 182 182 182 181 182 183 183 185 186 185 188 190 189 188 186 178 172 172 173 175 179 176 169 165 167 271 311 310 306 309 317 322 331 344 353 353 359 4 359 358 358 0 359 356 356 352 349 343 339
215 214 238 241 248 250 244 248 255 253 240 235 254 271 262 247 266 292 272 268 116 113 102 113 122 118 116 118 123 126 131 137 141 145 148 154 159 161 165 168 171 176 178 177 178 181 182 182 183 184 185 185 186 187 187 188 187 188 189 190 190 190 188 185 182 182 183 188 188 184 184 178 189 235 283 293 296 305 331 340 338 343 344 349 2 359 357 5 6 0 354 352 350 347 345 342 340
216 199 226 233 244 257 250 250 253 262 264 211 218 257 264 256 143 260 277 160 127 104 98 113 117 119 125 130 136 139 143 146 145 142 139 149 157 157 160 167 175 180 179 180 183 183 182 183 184 186 188 190 192 192 191 191 191 190 190 190 191 191 192 192 191 191 194 202 196 186 188 190 206 238 275 283 279 289 356 13 349 348 342 348 357 352 355 1 357 350 349 350 348 347 347 347 346
241 219 243 243 246 258 250 255 254 249 272 213 192 240 263 280 146 235 252 131 124 110 117 127 124 129 136 140 144 144 141 139 142 143 148 159 161 161 166 173 177 180 182 184 185 184 184 186 187 189 191 193 196 197 197 197 195 191 190 191 191 193 196 197 198 200 203 207 200 194 199 200 210 236 263 277 267 270 293 332 337 349 344 345 349 347 349 352 351 350 352 353 349 347 346 346 348
255 228 246 259 259 263 245 250 242 201 240 199 166 243 265 234 214 234 194 124 120 118 130 132 131 140 143 145 139 132 135 145 154 161 166 166 166 169 172 176 177 180 185 185 184 185 187 189 189 190 193 195 198 200 200 199 195 191 190 189 190 194 199 203 205 207 209 207 204 204 209 211 221 235 230 248 256 266 271 285 13 67 13 354 342 341 349 2 4 358 357 354 348 346 347 346 347
269 217 196 243 265 266 244 235 219 205 217 171 151 243 260 250 247 245 123 125 128 121 129 129 136 145 144 144 131 138 158 165 173 173 170 165 169 176 175 176 179 181 182 182 183 185 189 190 186 187 194 195 195 197 198 194 191 190 189 190 194 200 206 213 216 216 212 207 208 208 212 227 242 223 197 205 239 238 175 143 138 123 73 15 359 14 28 23 10 1 3 359 354 357 360 359 356
270 202 179 195 212 260 264 224 195 212 219 160 159 238 253 264 264 253 125 138 135 125 133 133 141 148 148 150 144 159 174 177 179 175 172 168 172 180 179 178 179 180 178 178 183 185 189 191 185 186 195 195 190 191 191 187 187 190 192 197 201 207 218 225 223 218 211 207 209 208 219 246 234 204 186 199 222 206 165 149 144 130 117 97 46 41 23 19 21 15 15 12 8 10 9 7 5
223 185 214 193 187 264 284 238 189 202 231 157 162 230 260 258 258 247 131 148 135 129 142 143 149 154 154 158 156 166 177 179 183 182 179 175 176 181 181 181 181 179 176 176 183 186 189 191 187 190 197 194 185 185 186 184 188 193 197 203 209 215 223 223 215 210 209 209 210 212 232 234 211 195 197 212 194 175 159 146 138 133 144 136 29 17 7 23 33 25 23 20 19 21 16 12 12
282 184 206 189 176 225 278 267 206 193 209 179 181 208 266 250 248 236 129 149 138 137 149 151 159 162 159 162 161 166 168 173 187 192 186 182 182 181 179 182 185 182 177 178 182 186 190 191 190 194 198 190 180 182 185 187 193 200 205 210 213 211 208 205 203 206 209 211 214 220 225 211 198 187 175 172 161 157 151 141 135 134 139 10 359 358 23 39 36 27 24 24 29 32 24 15 15
273 160 187 209 171 182 224 277 247 188 191 209 199 198 216 252 268 37 139 149 141 145 153 157 165 166 163 161 162 169 170 177 189 192 188 187 186 181 178 182 187 185 180 182 185 187 189 189 191 196 196 187 180 183 188 192 198 203 206 203 198 193 192 196 199 207 215 218 221 214 206 191 178 171 157 150 151 150 144 138 129 112 74 359 351 31 52 45 36 26 23 32 41 38 29 18 15
180 162 169 217 200 192 203 235 242 170 179 201 182 197 227 259 304 13 144 152 147 156 160 164 170 168 164 162 166 173 177 187 193 189 186 185 184 181 179 182 188 188 183 184 186 188 189 186 191 197 195 188 185 187 189 188 187 187 185 181 182 184 189 194 201 213 221 224 219 197 188 171 159 157 150 148 150 146 137 124 106 85 65 47 53 61 56 40 33 26 27 42 50 44 35 24 18
164 180 158 178 202 225 214 228 247 155 145 191 174 190 222 239 267 299 150 156 152 160 164 166 171 167 163 165 171 174 185 195 191 185 182 183 184 181 181 185 189 188 186 185 185 190 189 183 188 195 195 192 187 184 181 175 170 171 173 173 178 183 190 196 203 212 217 217 203 175 164 154 150 148 144 147 150 144 127 109 102 92 92 95 74 67 56 43 37 30 32 42 47 45 36 27 21
154 164 176 188 189 249 246 252 271 172 142 219 190 192 219 216 225 193 150 151 151 161 165 167 172 172 173 174 175 177 189 192 176 179 181 183 186 185 185 188 189 188 188 187 186 189 188 184 188 192 192 190 185 181 177 174 171 171 172 175 180 185 193 198 195 196 197 185 170 159 151 146 146 145 144 147 146 143 132 123 117 103 96 90 82 72 59 47 38 31 35 41 42 42 36 27 20
174 157 197 219 194 239 252 239 272 218 155 252 186 186 239 226 201 180 157 154 162 167 167 172 178 179 180 175 176 181 187 176 159 175 184 186 188 188 190 190 187 189 190 189 189 189 187 186 189 188 186 185 184 182 179 178 179 180 179 179 184 187 190 190 182 176 172 162 156 153 148 145 146 143 141 148 150 150 143 132 116 103 96 89 84 68 55 44 35 31 37 45 47 46 42 31 23
218 192 183 229 219 243 274 264 286 96 165 254 188 185 260 263 169 172 181 178 185 182 177 178 177 178 181 178 179 183 181 174 171 175 183 189 190 189 191 191 190 192 191 189 189 189 187 187 188 186 183 182 182 182 181 180 182 186 188 186 187 184 177 169 165 161 158 154 149 147 147 146 145 139 140 152 157 146 132 122 110 104 94 80 70 55 48 45 40 37 38 45 50 49 48 39 35
208 195 177 233 242 189 246 273 294 227 171 184 155 191 286 328 80 166 232 242 192 198 191 181 178 180 182 182 185 184 178 176 177 180 184 186 187 187 190 192 192 192 189 186 187 188 188 189 187 184 183 182 182 181 181 182 182 185 188 187 186 180 167 157 152 148 147 146 143 142 142 142 142 140 143 151 150 137 119 113 106 97 85 69 56 50 53 54 51 48 43 42 41 42 47 45 46
208 193 181 211 239 206 209 269 307 337 354 105 114 350 306 270 139 202 247 195 137 174 182 172 183 183 174 180 190 190 185 180 176 179 182 182 185 188 190 190 190 189 186 185 187 188 188 188 186 184 183 183 181 180 181 184 182 180 178 173 171 163 154 152 148 141 142 144 142 140 139 140 143 138 141 144 140 131 114 105 97 85 80 68 58 61 66 65 60 58 50 40 36 37 48 56 55
225 211 189 193 209 221 237 317 8 31 351 291 141 214 287 264 201 207 203 151 163 167 175 180 182 175 173 185 192 192 192 189 183 182 184 183 184 186 187 188 187 185 184 184 186 186 184 184 184 184 184 182 181 182 184 186 184 182 176 169 163 152 148 152 151 146 146 147 144 144 142 142 145 139 139 139 132 127 111 98 87 79 78 75 78 80 78 72 65 64 54 44 47 45 54 65 59
222 217 191 194 206 211 207 33 61 95 252 273 160 180 261 300 241 220 194 177 177 172 193 195 187 182 187 190 187 187 189 187 187 193 193 186 184 182 183 186 184 182 182 183 183 182 181 182 184 185 184 182 183 184 186 187 185 185 184 179 171 160 154 153 154 152 150 150 148 148 144 140 142 140 136 129 122 119 108 95 84 78 84 90 95 90 80 72 65 64 59 57 69 69 67 68 60
215 202 173 187 209 205 179 130 140 209 244 303 351 155 211 279 256 222 172 178 190 193 202 201 197 198 198 195 190 188 189 187 183 186 190 189 190 185 178 178 178 178 180 179 178 178 179 182 184 184 184 185 187 187 188 190 190 189 187 182 174 168 161 154 154 153 151 153 151 146 142 137 136 135 131 124 118 116 107 95 84 88 100 104 101 91 80 70 64 66 69 75 82 80 77 75 69
213 172 152 177 200 195 172 160 222 259 15 301 297 124 172 266 272 178 154 184 210 208 205 201 200 202 202 200 197 195 195 192 185 184 187 187 188 184 172 165 170 175 177 177 176 176 180 183 183 183 185 187 189 189 190 193 196 195 188 180 170 166 162 157 155 154 154 157 152 145 143 138 135 134 132 128 124 119 104 94 96 107 111 107 100 92 82 69 66 73 80 84 85 84 84 82 77
195 154 135 136 165 178 170 173 204 154 118 252 254 163 178 274 256 173 159 202 218 213 205 202 201 200 201 200 196 198 196 190 188 185 184 182 180 175 164 160 165 171 175 176 175 176 179 181 182 183 186 189 189 189 192 195 199 197 190 180 169 162 160 158 156 155 157 159 151 145 143 139 140 139 135 134 129 116 105 104 113 117 113 107 99 89 79 73 77 84 88 87 86 87 87 85 82
154 151 157 65 28 127 146 138 123 116 236 252 236 180 179 261 251 189 186 211 207 193 188 198 204 202 199 197 195 194 190 185 186 180 176 176 170 164 160 160 162 166 172 174 174 175 177 179 181 183 186 189 188 188 192 197 200 198 189 180 172 165 162 160 158 157 158 158 151 146 145 143 143 141 139 136 124 115 117 119 119 116 111 104 95 84 79 82 88 90 90 86 86 89 88 88 86
150 149 165 204 317 357 69 28 80 169 244 258 230 177 175 226 250 209 215 226 203 179 188 191 197 200 197 194 191 188 184 180 179 176 172 167 164 163 162 162 161 165 171 172 173 175 176 178 180 182 186 189 188 190 196 200 202 198 187 179 174 169 167 165 163 162 160 158 154 150 148 146 144 144 144 136 122 122 129 126 122 116 109 102 94 89 87 88 92 92 89 85 85 89 89 89 87
163 153 149 167 251 265 204 222 178 206 243 259 221 160 180 230 242 216 215 226 212 192 197 191 190 193 190 186 183 180 178 177 178 177 173 171 166 155 155 163 165 167 171 172 173 176 177 179 180 181 184 187 189 194 200 201 201 198 187 180 177 172 171 169 167 166 165 163 160 157 155 152 151 151 149 138 127 130 134 130 125 117 110 105 99 96 93 89 91 91 91 89 87 88 88 88 84
171 171 158 166 174 173 208 221 197 224 250 263 230 166 232 259 259 227 212 219 216 202 198 190 187 187 182 178 173 169 172 176 180 176 172 170 154 139 152 174 176 172 174 174 174 176 176 178 180 181 183 187 190 194 198 198 197 195 188 182 178 174 173 173 172 171 169 168 167 164 163 160 157 154 146 138 132 132 131 124 119 113 109 108 104 100 95 90 92 93 95 94 91 92 91 89 86
170 154 132 154 163 161 194 198 176 202 254 273 218 164 206 202 255 260 228 221 205 172 154 155 164 169 167 166 164 166 171 176 176 172 171 167 161 164 171 178 179 177 178 177 175 175 174 177 181 182 182 186 190 191 193 193 192 191 187 182 178 176 176 175 176 176 174 171 170 168 165 162 156 144 136 134 133 131 127 119 112 109 110 112 108 103 97 91 93 96 97 96 93 95 93 90 87
178 125 123 179 185 155 153 179 173 176 219 259 207 196 220 199 286 320 296 157 133 135 133 135 148 157 157 164 170 170 171 175 175 172 171 168 170 178 178 174 175 179 182 180 175 174 173 176 180 181 181 184 189 192 191 190 189 188 184 181 178 177 178 177 178 179 176 173 173 170 164 157 147 138 134 132 132 131 127 120 112 111 116 118 112 105 98 92 94 97 99 98 95 95 93 89 85
167 152 170 196 173 147 147 232 174 105 170 234 245 222 279 291 311 345 34 108 131 141 143 147 156 158 162 172 174 172 173 178 179 171 171 172 174 180 179 173 173 178 182 181 176 176 177 177 176 177 180 184 190 195 193 188 185 183 180 179 178 179 181 182 181 178 174 172 171 167 160 150 144 139 135 133 130 129 128 120 114 118 122 121 115 109 99 91 93 98 101 99 97 97 94 88 84
142 183 196 158 122 130 112 198 346 59 172 244 287 199 247 227 240 328 22 117 153 155 153 156 156 158 170 180 176 177 177 176 177 167 168 174 176 179 177 174 174 177 181 181 176 178 180 178 176 177 181 185 189 194 193 188 184 180 178 177 179 183 184 183 182 177 172 170 166 162 158 151 147 143 138 135 131 129 127 121 118 122 124 123 120 111 99 90 93 100 102 101 99 99 96 89 84
146 177 182 150 151 202 117 159 182 128 177 234 299 250 238 195 211 268 230 185 177 166 160 160 163 170 178 179 179 181 173 171 175 168 169 175 177 178 175 170 170 173 178 180 176 176 177 177 178 181 185 187 188 189 188 186 182 178 177 178 181 184 183 181 179 174 170 168 164 160 157 153 151 149 144 138 135 132 127 123 124 124 124 126 124 112 101 92 93 101 103 102 101 100 96 90 84
152 152 169 157 154 172 173 167 168 164 180 201 230 321 262 229 212 194 201 199 177 168 173 176 179 182 180 176 177 179 174 172 175 174 175 175 173 176 171 165 166 170 173 176 175 172 172 174 177 180 184 186 185 185 183 179 177 176 175 177 179 179 178 177 175 172 169 166 162 158 155 155 155 153 149 144 140 135 131 129 131 129 126 130 127 115 105 95 93 101 104 102 101 100 96 90 85
167 167 170 164 150 145 159 177 141 140 156 174 175 227 259 256 211 185 195 193 181 182 183 184 187 183 178 176 173 174 174 174 177 178 174 167 167 172 169 164 165 166 167 172 175 172 170 172 175 177 177 178 178 178 177 175 174 175 174 173 173 173 173 173 171 170 167 164 161 158 156 157 159 157 153 150 144 141 140 138 136 132 129 133 132 120 110 101 97 101 105 102 101 100 96 91 88
165 174 176 172 165 134 136 210 243 116 147 171 158 196 261 265 217 202 198 184 188 192 185 184 185 177 175 175 171 172 174 175 177 173 166 161 164 170 168 165 167 166 165 170 174 171 169 170 172 174 173 173 173 172 173 173 172 172 172 170 169 170 171 171 169 168 167 164 164 163 161 162 163 161 159 156 151 150 150 147 144 140 136 137 135 125 117 107 101 103 105 104 100 99 98 94 90
Height
771 772 770 770 769 768 771 772 791 798 798 809 806 805 795 784 785 784 784 778 777 774 765 762 760 763 770 775 774 770 769 773 776 786 786 765 759 763 763 763 763 766 769 772 776 781 785 788 790 793 795 797 798 800 802 803 804 804 805 806 807 808 809 810 810 811 811 813 814 814 814 814 815 816 816 817 817 818 818 818 818 818 818 818 818 818 818 818 818 818 818 818 818 818 818 818 818
771 772 770 770 768 770 777 778 801 809 807 816 806 802 794 784 786 789 787 781 782 774 764 765 765 765 766 766 766 771 770 767 766 768 767 762 763 765 766 766 765 766 768 772 775 780 784 787 791 793 795 797 799 801 802 803 804 805 806 806 808 809 810 811 811 811 812 813 815 815 815 815 816 816 817 818 818 818 819 819 819 819 819 819 819 819 819 819 818 818 818 818 818 818 819 819 819
772 772 770 771 770 772 780 784 803 814 816 820 806 795 792 788 787 787 782 776 775 766 763 767 769 770 771 773 771 775 772 766 766 766 766 765 764 765 768 769 769 770 770 772 775 779 783 787 790 793 795 797 800 801 803 804 805 806 806 807 808 809 810 811 811 812 812 814 815 816 816 816 816 817 818 818 819 819 819 819 819 820 820 820 819 819 819 819 819 819 819 819 819 819 819 819 819
772 772 771 771 775 778 786 794 802 810 817 820 807 791 789 788 783 783 778 771 768 764 766 769 773 770 773 781 775 773 771 765 765 765 767 766 765 766 768 771 772 773 773 774 776 779 783 787 790 793 795 798 800 802 803 804 805 806 807 808 809 810 811 811 812 812 813 814 816 816 816 816 817 817 818 819 819 819 820 820 820 820 820 820 820 820 820 819 819 819 819 819 819 819 819 819 819
772 772 772 771 780 784 789 800 804 807 809 810 804 788 784 784 778 780 776 770 767 766 767 771 776 768 768 775 772 774 769 764 763 763 766 766 767 767 768 771 773 775 776 777 777 780 783 787 790 793 796 798 801 802 804 805 806 807 808 809 809 810 811 812 812 813 814 815 816 817 816 817 817 818 819 819 820 820 820 820 820 820 820 821 820 820 820 820 820 819 819 819 819 819 819 819 819
772 772 772 772 779 782 791 803 806 806 797 795 796 784 779 778 776 776 774 770 766 766 765 769 773 770 772 770 766 769 765 763 763 762 764 766 768 768 769 770 773 776 777 779 780 781 784 787 790 793 796 798 801 803 804 805 806 807 808 809 810 810 811 812 813 813 814 815 816 817 817 817 817 818 819 820 820 821 821 821 821 821 821 821 821 821 820 820 820 820 820 819 819 819 819 819 819
772 774 775 777 782 785 797 803 801 801 791 787 788 780 775 773 773 773 774 772 767 765 765 766 766 771 776 769 766 765 761 761 760 761 763 765 769 771 772 771 772 775 778 780 781 783 785 788 790 793 796 798 801 803 804 805 806 808 809 810 810 811 812 813 813 814 814 815 816 816 817 817 818 818 819 820 820 821 821 821 821 821 821 821 821 821 821 821 821 820 820 820 820 819 819 819 820
772 776 779 784 790 794 801 801 798 797 789 785 780 775 772 769 771 773 774 773 770 767 767 766 764 774 774 766 771 765 760 761 759 761 762 764 768 772 775 774 773 775 779 781 783 785 786 789 791 794 796 799 801 803 805 806 807 808 809 810 811 811 812 813 814 814 815 815 816 816 817 817 818 818 819 820 821 821 821 822 822 822 821 822 822 822 822 821 821 821 820 820 820 820 820 820 820
772 776 782 786 795 800 802 801 798 793 787 783 777 772 770 767 770 772 773 772 769 768 768 764 764 773 771 767 771 764 762 763 761 761 762 765 767 772 776 777 776 776 779 782 785 786 788 790 792 795 797 799 801 803 805 806 807 808 810 811 811 812 813 814 814 815 815 816 816 817 817 818 818 819 820 820 821 821 822 822 822 822 822 822 822 822 822 822 822 821 821 821 821 820 820 820 821
774 777 783 790 797 802 805 802 796 790 783 779 773 770 769 767 768 771 773 770 766 769 766 762 765 770 770 771 771 765 765 765 762 764 765 766 768 772 776 778 779 778 780 783 786 788 789 792 793 796 798 801 802 804 806 807 809 809 811 811 812 813 813 814 814 815 816 816 817 817 818 818 819 819 820 820 821 821 821 822 822 823 822 822 822 823 823 822 822 822 822 821 821 821 821 821 821
779 780 782 792 800 804 805 801 795 787 779 777 774 767 766 765 767 770 770 767 764 768 765 765 769 768 770 773 771 767 766 766 763 765 767 769 771 774 776 779 781 780 782 784 787 789 791 793 795 798 800 802 803 805 807 808 810 810 811 812 813 814 814 814 815 816 816 817 817 817 818 818 819 820 820 820 821 821 822 822 822 823 823 823 823 823 823 823 823 823 823 822 822 822 822 822 822
781 783 784 793 797 798 798 797 792 786 780 780 775 764 761 763 768 767 766 767 764 766 764 763 762 761 773 776 771 769 767 769 766 766 770 771 773 776 778 780 783 784 785 786 788 790 793 795 797 799 801 803 805 806 808 809 810 811 812 813 814 814 815 815 815 816 817 817 818 818 819 819 820 820 821 821 821 821 822 822 822 823 823 823 823 823 823 823 823 823 823 823 823 822 822 822 822
779 783 785 791 792 790 792 794 789 787 785 779 773 762 758 762 765 762 762 764 762 767 760 753 753 756 773 776 770 770 769 771 770 770 771 773 775 777 780 782 785 787 788 789 790 792 794 796 798 800 802 804 806 807 809 810 811 812 813 814 815 815 815 816 816 817 817 818 818 819 819 820 821 821 821 821 822 822 822 822 823 823 823 823 823 823 823 823 823 823 823 823 823 823 823 822 822
776 779 782 788 790 789 789 791 788 790 785 773 768 760 758 760 758 756 759 763 760 760 752 744 749 757 771 776 773 771 769 772 772 773 773 775 777 779 782 784 787 789 791 792 792 794 795 797 799 801 803 804 806 808 809 811 812 813 814 815 816 816 816 816 817 817 818 819 819 820 820 821 821 822 822 822 823 823 823 823 823 823 823 823 823 823 824 823 823 823 823 823 823 823 823 823 822
773 776 779 785 789 788 786 786 784 788 782 769 764 759 759 756 753 754 755 760 757 750 746 744 746 756 767 769 769 767 767 771 772 773 774 777 779 781 785 787 790 792 794 795 796 796 797 798 800 801 803 804 807 808 810 811 813 814 814 815 816 817 817 817 817 818 819 819 820 820 821 822 822 823 823 824 824 824 824 824 824 824 824 824 824 823 824 823 823 823 823 823 823 823 823 823 822
771 774 780 786 787 787 786 783 782 785 778 766 760 757 761 755 750 754 748 749 753 748 748 751 748 752 758 757 756 759 765 770 771 773 774 778 781 784 787 789 792 794 796 798 798 799 798 799 800 802 803 805 807 808 810 811 813 814 815 816 817 817 817 817 818 819 819 820 820 821 822 822 823 824 825 825 825 826 825 825 825 825 825 824 824 824 824 824 824 824 824 824 823 823 823 822 822
770 774 783 789 788 785 783 780 779 779 771 762 759 759 764 758 750 749 743 743 750 751 751 753 750 750 753 753 752 756 764 768 770 773 775 779 783 786 790 791 793 795 797 798 798 798 798 799 800 801 802 804 806 808 810 811 813 814 815 816 817 818 817 818 818 819 820 820 821 822 823 823 824 825 826 826 827 827 827 827 826 826 826 825 825 825 824 824 824 824 824 823 823 823 822 822 822
771 778 785 787 786 780 773 771 769 767 764 761 759 759 762 761 754 747 746 750 751 753 754 753 753 752 752 753 755 759 764 768 770 772 775 780 784 787 790 792 794 794 796 797 798 797 797 798 799 800 801 803 805 807 809 810 813 814 815 816 817 818 818 819 819 819 820 820 821 822 823 824 825 826 827 827 828 828 828 828 828 827 827 826 826 825 825 824 824 824 824 823 823 822 822 821 821
771 777 783 781 777 770 763 763 762 762 761 759 759 759 759 759 757 750 753 759 756 756 758 757 759 758 757 757 760 763 765 768 770 773 777 781 784 786 790 793 795 795 795 796 797 797 796 796 798 799 800 802 803 805 807 810 812 813 815 816 817 818 818 819 819 820 820 821 822 822 823 824 825 826 827 828 828 829 829 829 829 828 828 827 827 826 826 825 824 824 823 823 822 822 821 821 821
768 773 779 774 768 765 761 759 759 758 757 759 760 759 758 756 754 752 755 762 759 758 759 760 763 764 762 762 763 765 768 770 772 776 779 781 784 787 790 793 795 796 795 796 797 798 798 797 798 799 800 801 803 804 807 809 811 813 814 816 817 818 819 819 820 820 821 822 822 823 823 824 825 826 827 828 828 829 829 829 829 829 828 828 828 827 826 826 825 824 823 823 822 822 821 821 820
765 768 771 767 763 765 760 757 756 756 757 759 759 759 759 753 751 753 755 762 763 757 753 753 759 762 764 765 765 766 768 771 776 780 782 785 788 790 792 795 797 797 796 796 796 796 797 798 798 799 800 801 803 805 807 808 810 812 814 816 817 818 819 820 820 821 822 823 823 823 824 824 825 826 827 828 829 829 829 829 829 829 828 828 828 827 827 826 825 824 823 823 822 821 821 820 820
763 762 762 760 761 763 758 755 756 755 756 757 759 761 758 752 751 752 754 760 759 750 745 747 752 755 758 761 763 765 769 775 780 784 787 789 791 793 794 796 797 797 796 795 794 794 795 797 797 798 800 801 803 805 807 809 811 812 814 815 816 817 818 819 821 822 823 824 824 824 824 824 825 826 828 828 829 829 829 829 829 829 828 828 828 827 827 826 825 824 823 822 822 821 820 820 819
763 761 758 758 759 759 755 754 754 754 756 757 758 758 754 755 756 752 752 754 749 743 741 744 749 750 753 756 761 767 775 780 784 786 788 789 791 792 793 794 794 794 793 793 793 794 794 795 797 798 799 801 803 805 807 809 811 812 814 815 816 817 818 820 821 822 823 824 824 824 824 825 825 827 827 828 829 829 829 829 829 829 828 828 827 827 826 826 825 824 823 822 821 821 820 819 818
763 763 758 757 757 756 754 752 752 753 755 754 755 756 755 759 757 752 751 748 745 743 741 744 748 751 754 759 765 773 779 782 784 786 786 785 786 787 788 790 790 790 790 791 791 793 794 795 797 798 800 801 803 805 807 808 810 812 813 814 816 817 819 820 821 822 823 823 824 824 824 825 825 826 827 828 829 829 829 829 829 829 829 828 827 827 826 826 825 824 823 822 821 820 819 819 818
762 763 759 756 756 754 752 752 752 752 753 751 753 757 757 757 756 754 750 746 746 745 743 746 750 755 760 765 770 775 778 780 780 781 780 779 780 782 785 786 788 789 788 788 789 791 793 794 796 798 800 802 803 805 806 808 809 811 812 814 816 818 820 821 821 822 822 823 824 824 824 825 825 826 827 828 828 829 829 829 829 829 829 828 828 827 826 826 825 824 823 822 821 820 819 819 818
758 758 757 756 755 752 752 752 751 752 752 751 754 756 755 752 755 756 748 745 748 746 747 750 754 761 766 769 770 771 773 774 775 775 777 778 780 782 785 787 788 788 788 788 788 790 792 794 796 799 801 803 804 805 807 808 809 810 812 815 817 819 820 821 822 822 822 823 823 824 824 825 826 827 828 828 829 829 830 830 829 829 829 829 828 827 826 826 825 824 823 822 821 820 819 818 817
753 754 755 754 754 751 751 751 750 751 751 751 755 756 753 749 756 758 747 746 748 748 753 755 758 764 767 769 770 769 770 770 771 773 777 780 782 784 787 788 788 788 789 789 789 791 793 795 796 798 801 803 805 807 808 808 809 810 812 814 817 818 820 821 822 822 822 823 824 824 824 825 826 827 828 829 829 830 830 830 830 829 829 829 828 827 826 826 825 824 823 822 821 820 819 817 816
750 752 754 753 753 752 751 751 751 752 751 749 752 755 752 752 757 754 747 749 749 750 756 757 760 764 767 769 769 770 771 772 773 773 774 775 778 780 781 782 783 785 787 788 790 792 794 795 795 797 799 801 804 807 808 809 809 810 812 813 815 818 819 821 821 822 822 823 824 824 825 825 826 827 828 829 830 830 830 830 830 830 830 829 829 828 827 826 826 825 824 823 822 820 819 817 816
751 751 756 755 753 753 751 750 750 752 751 746 751 760 758 756 754 747 746 752 751 752 757 759 762 765 766 769 770 773 774 773 772 770 768 769 772 773 772 773 776 780 783 786 789 791 793 793 794 795 797 799 801 805 807 809 810 811 812 813 815 817 819 820 821 822 823 823 824 824 825 825 826 827 828 829 830 830 830 830 830 830 830 830 829 828 827 826 826 825 824 823 822 821 819 817 816
751 751 756 757 759 757 749 747 749 750 750 744 753 769 765 756 750 744 748 753 752 756 760 762 765 766 768 769 771 774 772 769 767 766 766 767 770 770 769 768 770 774 779 784 787 789 791 792 792 793 796 797 799 803 806 808 809 810 812 813 815 817 819 820 821 822 823 823 824 824 825 825 826 828 828 829 830 830 830 830 831 830 830 830 829 828 827 826 826 825 824 823 822 821 819 817 816
753 753 756 759 765 761 746 744 748 749 748 742 753 771 764 754 748 744 750 751 751 758 763 764 766 766 768 770 771 772 769 767 765 766 767 768 769 770 770 768 767 770 775 780 784 786 788 790 791 792 796 797 798 801 804 806 808 809 811 812 814 817 819 820 822 823 823 823 824 824 824 825 826 828 828 829 829 830 830 830 830 830 830 830 829 828 827 826 826 825 824 823 822 821 819 817 815
754 759 762 761 764 761 747 742 745 747 746 742 752 767 763 753 746 743 749 750 750 759 763 764 765 765 768 769 770 770 770 769 767 767 767 768 769 770 772 772 771 771 773 778 782 784 787 789 791 793 796 797 797 800 803 806 807 809 810 812 814 816 818 820 822 823 823 824 823 823 824 825 826 828 828 829 830 830 830 830 830 830 830 830 829 828 827 826 825 825 824 823 822 820 819 817 815
758 760 765 762 762 763 753 742 740 742 745 745 750 760 759 750 743 744 749 750 751 758 762 764 764 764 766 768 769 770 770 770 769 768 768 768 769 769 771 774 775 774 774 777 780 782 785 788 791 793 796 796 796 799 803 805 807 808 810 811 812 815 817 820 822 823 824 824 823 823 824 825 826 827 828 829 830 830 831 831 830 830 830 829 829 828 827 826 825 824 823 822 821 820 818 816 814
766 763 763 761 760 762 758 747 739 739 745 747 748 753 753 746 743 747 749 749 753 758 761 763 763 763 765 767 769 769 769 769 767 766 767 768 769 770 771 774 776 776 776 777 779 781 783 786 790 793 795 795 795 798 801 804 806 808 809 811 812 814 817 819 821 823 823 824 823 823 824 825 826 827 829 830 830 831 831 831 830 830 830 829 828 827 827 826 825 824 823 822 821 819 818 816 814
768 765 762 762 758 757 757 749 739 739 745 749 751 754 751 746 746 751 752 750 753 756 758 760 760 761 764 766 768 768 768 767 765 764 766 768 769 770 771 773 775 776 777 778 780 783 784 786 789 793 794 794 795 798 800 802 804 807 809 811 813 815 817 818 820 822 823 824 823 823 824 824 826 828 829 830 831 831 831 831 831 830 829 829 828 827 826 826 824 824 823 822 821 819 818 816 814
760 760 758 759 757 756 754 747 737 737 745 750 753 754 751 747 747 753 755 753 754 756 756 759 760 761 764 766 766 766 767 765 763 765 767 769 769 769 770 772 774 776 778 779 782 784 786 787 790 793 794 794 795 797 799 801 803 806 809 810 813 814 816 817 819 821 823 824 823 823 823 824 826 828 829 830 831 831 831 831 830 830 829 828 827 827 826 825 824 823 823 822 821 819 817 816 814
755 757 757 756 757 756 751 744 737 735 743 747 748 749 748 746 747 753 757 755 755 757 758 760 761 762 763 765 765 765 765 764 764 766 767 769 769 769 770 772 774 775 777 779 781 784 786 787 790 792 793 793 794 795 797 800 801 804 807 810 812 813 815 817 819 821 822 823 823 823 824 825 827 828 829 830 831 831 831 831 830 830 829 828 827 827 826 825 824 823 823 822 820 818 817 815 813
756 758 757 758 760 756 748 744 738 735 742 746 745 746 745 745 750 756 757 756 756 755 756 759 760 761 762 763 765 764 764 764 765 767 767 769 769 768 770 771 772 773 775 778 781 783 785 787 790 791 792 793 793 795 796 799 801 804 806 809 811 812 814 816 819 821 822 823 824 824 825 825 826 828 829 830 831 831 831 830 830 830 829 828 827 827 826 825 824 823 823 822 820 818 817 816 814
757 759 760 761 759 756 750 744 739 737 742 745 746 747 746 747 753 757 757 755 755 751 749 751 754 758 761 762 763 763 763 764 764 765 766 767 767 768 770 771 771 772 773 777 780 783 785 787 789 790 792 793 794 795 797 799 802 805 807 809 810 812 814 817 819 820 822 824 825 826 826 826 826 828 829 830 831 831 831 830 830 830 829 828 827 827 826 825 824 823 822 822 820 819 818 817 815
758 760 763 763 758 757 754 746 741 739 740 743 746 747 749 754 758 758 757 754 754 754 750 749 750 753 756 757 758 759 760 762 762 763 764 765 767 767 769 770 770 772 773 776 779 782 784 786 788 790 792 793 794 795 797 800 802 805 808 809 811 813 814 817 819 821 823 825 827 827 827 826 826 827 829 831 831 832 831 831 831 830 828 828 828 827 826 825 824 823 823 822 821 820 819 818 817
759 759 761 762 757 756 753 748 742 740 741 741 746 753 753 757 760 756 755 754 754 757 755 754 754 753 755 756 757 758 758 758 759 761 762 763 764 766 767 769 770 772 773 775 778 780 783 785 787 790 792 794 795 796 798 800 802 805 807 809 811 813 814 817 818 821 824 826 827 828 827 827 826 827 829 831 831 832 832 831 831 829 828 828 828 827 826 825 825 824 823 822 821 820 820 819 818
761 757 756 756 754 753 753 750 746 751 753 743 748 765 762 757 761 756 755 757 757 758 758 757 757 755 756 757 757 758 758 758 758 759 759 760 762 765 767 769 770 771 773 775 778 780 782 785 788 790 792 794 796 797 798 800 802 804 806 808 810 811 814 816 818 820 824 826 827 828 827 827 827 828 829 831 831 832 832 831 830 829 829 828 828 827 826 826 825 824 823 822 821 821 820 819 818
763 754 750 752 752 754 755 751 752 759 761 747 746 763 766 762 763 757 756 760 759 759 759 758 757 756 755 755 755 757 758 758 759 759 760 761 763 765 767 768 770 771 774 776 778 781 783 786 788 791 793 794 796 797 799 801 803 805 806 808 809 811 813 816 818 821 823 826 827 827 827 827 827 828 829 831 831 832 832 831 830 830 829 829 828 828 827 826 825 824 824 823 822 822 820 819 819
759 746 744 751 752 756 756 752 755 756 755 752 748 754 763 763 760 756 757 761 762 761 760 757 756 755 754 754 754 755 755 756 757 758 760 762 764 765 766 768 770 772 774 776 778 781 784 786 788 791 793 795 796 798 799 801 803 805 806 808 810 811 813 816 819 821 824 825 826 827 827 827 828 829 830 831 832 832 832 831 830 830 830 829 829 828 827 826 826 825 824 824 822 822 820 819 820
749 739 741 748 749 754 753 752 756 753 756 762 754 754 764 765 761 759 759 762 763 760 758 756 755 754 754 753 753 753 754 755 756 758 759 761 764 766 767 768 770 772 774 776 779 781 784 786 788 791 793 794 796 798 800 802 804 805 806 807 809 812 814 817 819 822 824 825 826 826 826 827 828 829 831 832 832 833 832 831 831 831 830 830 829 828 828 827 826 826 825 824 823 822 821 821 820
739 736 741 744 747 750 750 753 755 756 765 767 757 756 763 766 764 762 761 762 760 756 755 754 753 753 752 752 753 753 754 755 756 758 760 762 764 765 767 768 770 772 775 777 779 781 784 786 788 791 792 794 796 799 801 802 804 805 806 807 809 811 814 817 820 823 824 825 826 826 826 827 828 830 831 832 833 832 832 831 831 831 831 830 830 828 828 827 827 827 826 825 824 823 822 822 821
734 737 744 747 749 748 748 753 755 763 772 762 753 754 757 764 763 758 755 745 741 747 752 753 751 750 749 749 751 752 753 755 757 759 761 762 764 765 766 768 770 772 775 778 780 782 784 786 788 790 792 795 797 799 801 802 804 804 804 806 808 810 813 816 819 822 824 825 826 826 827 828 829 830 831 832 833 832 832 831 831 832 832 831 830 829 828 828 828 827 827 826 825 824 824 823 823
733 738 746 753 758 755 755 759 759 772 774 754 747 752 757 763 757 748 741 728 727 738 742 745 745 745 745 746 748 750 752 755 757 759 761 762 763 764 766 767 770 773 775 778 780 782 784 785 787 789 792 794 796 798 799 800 802 803 803 805 807 810 812 815 818 820 822 824 825 826 827 828 829 830 831 832 832 832 831 832 832 832 832 831 830 829 829 829 828 828 827 827 826 825 825 824 824
737 740 748 761 769 768 769 770 768 773 767 746 743 752 757 755 739 731 732 725 726 728 727 731 736 737 741 743 746 749 752 755 756 758 759 760 762 764 768 770 770 772 775 778 780 782 784 785 787 789 791 793 795 797 798 799 801 802 803 805 808 811 813 815 817 819 821 823 824 826 827 828 829 830 831 832 831 831 831 832 832 832 832 831 830 830 830 830 829 829 829 828 827 826 826 826 825
739 741 748 761 770 774 778 779 775 772 759 742 743 752 754 745 726 719 722 718 717 719 720 725 730 734 738 741 745 748 752 754 755 756 757 759 762 764 769 773 773 773 774 777 779 781 784 785 787 789 791 793 795 797 799 801 802 803 803 806 808 811 814 815 817 818 820 822 824 826 828 829 830 830 831 831 831 831 831 832 833 832 832 831 831 831 831 831 831 830 830 829 828 828 828 827 827
737 736 742 752 758 762 768 770 767 764 755 746 749 751 746 735 723 719 716 711 713 718 722 726 731 736 739 742 747 749 752 754 754 756 757 758 760 762 765 769 772 774 775 777 779 781 783 785 787 789 790 793 795 797 799 801 803 803 804 806 808 811 814 815 817 818 820 822 824 827 828 829 830 830 831 831 831 831 832 833 833 833 832 832 832 832 832 832 832 832 831 831 830 830 829 829 828
736 732 738 747 743 743 754 759 756 753 749 749 749 742 733 725 721 722 718 712 716 720 723 729 733 737 740 743 747 749 751 753 753 754 755 757 760 762 764 766 769 773 775 777 778 780 782 785 787 789 791 793 795 797 799 800 802 803 805 807 809 811 813 815 817 818 820 822 824 827 828 829 830 831 831 832 831 832 832 833 833 833 833 833 833 833 833 834 833 833 833 832 832 832 831 830 830
734 735 738 739 732 732 747 759 759 754 750 750 748 736 729 726 721 722 722 718 721 724 725 730 733 736 741 742 744 747 749 750 751 752 753 756 759 761 763 764 767 771 774 776 777 779 781 784 786 788 790 792 794 797 799 800 802 803 805 807 809 811 813 814 816 818 820 823 825 827 828 829 830 831 832 832 832 832 833 833 833 833 833 834 834 835 835 835 835 834 834 834 833 833 832 831 831
728 736 733 731 733 736 743 752 760 762 755 750 747 737 733 732 728 726 728 727 728 728 727 730 733 736 740 741 742 744 746 748 749 750 753 755 757 759 761 763 765 769 773 775 776 778 781 783 785 787 789 791 793 796 799 801 802 803 805 807 809 811 813 815 817 819 821 823 826 827 828 829 830 831 832 832 832 832 833 834 833 834 834 835 835 836 836 836 836 836 836 835 835 834 833 833 832
716 722 720 726 740 747 747 750 756 760 758 751 747 744 738 731 726 725 728 729 729 730 730 731 733 734 736 739 741 742 745 748 749 750 751 753 755 758 759 762 765 769 772 775 777 779 781 783 785 787 789 792 794 796 799 801 802 803 805 807 809 811 813 815 817 819 821 824 825 826 827 829 830 832 832 832 832 833 833 834 833 834 835 835 836 837 837 837 837 837 837 837 836 836 834 834 834
712 715 717 722 730 737 741 745 745 748 755 754 747 746 736 720 714 715 718 725 727 728 729 729 728 730 732 735 738 741 743 745 747 748 749 751 754 757 759 762 764 768 771 774 776 778 780 782 785 787 790 792 794 797 798 800 802 803 805 807 809 812 814 816 818 820 822 824 825 826 827 828 830 831 832 831 832 832 833 834 834 834 835 836 837 837 838 838 838 839 839 838 838 837 836 835 835
718 721 726 726 725 729 733 739 741 738 745 751 749 747 730 710 708 708 708 719 723 720 722 723 724 726 729 732 736 738 741 743 744 746 748 751 754 758 760 762 765 767 770 773 776 778 780 782 784 786 790 792 794 796 798 800 802 803 805 807 809 812 815 817 818 820 822 824 825 826 827 828 830 831 831 831 831 832 833 834 835 835 836 837 838 838 839 839 839 840 840 840 839 838 837 837 837
714 718 725 725 723 729 737 744 744 734 736 743 744 743 724 705 708 708 705 713 715 712 715 718 720 724 727 730 733 735 738 739 741 745 748 751 754 757 759 761 765 767 769 772 775 777 779 781 784 786 789 791 793 796 797 799 801 803 805 807 810 813 815 817 819 821 822 823 825 826 827 828 829 830 831 831 831 832 834 834 835 836 837 838 838 839 840 840 840 841 841 841 841 839 839 839 839